Miscellaneous Local Product
Issued by NWS Hastings, NE

Home | Current Version | Previous Version | Graphics & Text | Print | Product List | Glossary On
Versions: 1 2 3 4 5 6 7 8 9 10 11 12 13 14 15 16 17 18 19 20 21 22 23 24 25 26 27 28 29 30 31 32 33 34 35 36 37 38 39 40 41 42 43 44 45 46 47 48 49 50
569
AXUS43 KGID 282002
MISGRI

GID CWA HOURLY WEATHER ROUNDUP
NATIONAL WEATHER SERVICE HASTINGS NE
300 PM CDT TUE MAR 28 2017

NOTE: "FAIR" INDICATES FEW OR NO CLOUDS BELOW 12,000 FEET WITH NO
SIGNIFICANT WEATHER AND/OR OBSTRUCTIONS TO VISIBILITY.

...SOUTH CENTRAL NEBRASKA...

CITY           SKY/WX    TMP DP  RH WIND       PRES   REMARKS
GRAND ISLAND   CLOUDY    50  41  71 E15       30.04F
HASTINGS       CLOUDY    51  41  68 E16       30.03S
KEARNEY        CLOUDY    54  39  58 E17       30.02S
ORD            CLOUDY    50  38  63 E10       30.03F
YORK           CLOUDY    48  41  76 E14       30.05S
AURORA         CLOUDY    49  42  77 E13       30.05S
LEXINGTON      CLOUDY    51  42  72 E13       29.99F
HOLDREGE       CLOUDY    53  40  63 E15G21    29.98F
HEBRON         CLOUDY    52  41  66 E14G20    30.02F

...NEBRASKA PANHANDLE...

CITY           SKY/WX    TMP DP  RH WIND       PRES   REMARKS
CHADRON        LGT RAIN  45  42  89 NE14      30.01S
ALLIANCE       LGT RAIN  43  41  93 E17       29.95S FOG
SCOTTSBLUFF    LGT RAIN  45  42  89 E16       29.95R FOG
SIDNEY         LGT RAIN  43  41  93 E17       29.93R FOG

...WESTERN AND NORTH CENTRAL NEBRASKA...

CITY           SKY/WX    TMP DP  RH WIND       PRES   REMARKS
VALENTINE      CLOUDY    48  43  82 E7        30.05F
AINSWORTH      CLOUDY    49  42  75 E9        30.05S
ONEILL         PTSUNNY   54  40  59 E13       30.06F
BROKEN BOW     CLOUDY    51  40  65 E12       30.02S
IMPERIAL       RAIN      44  42  93 E17       29.95S FOG
NORTH PLATTE   RAIN      46  44  93 E7        30.01S FOG
MCCOOK         LGT RAIN  47  46  97 SE8       30.00R FOG

...EASTERN NEBRASKA...

CITY           SKY/WX    TMP DP  RH WIND       PRES   REMARKS
NORFOLK        MOSUNNY   56  40  55 E16       30.05F
SO SIOUX CITY  MOSUNNY   61  39  44 E17       30.06F
TEKAMAH        CLOUDY    54  42  64 E9        30.08F
COLUMBUS       CLOUDY    52  41  66 E16       30.07F
ALBION         CLOUDY    53  41  64 E10G16    30.05F
OMAHA EPPLEY   CLOUDY    50  41  71 E12       30.09F
OFFUTT AFB       N/A     50  41  70 NE10      30.08F
MILLARD        CLOUDY    50  43  77 E5        30.09S
LINCOLN        CLOUDY    50  41  71 E14       30.08S
NEBRASKA CITY  CLOUDY    52  38  60 E9        30.06F
BEATRICE       CLOUDY    51  42  72 E8        30.06R
FALLS CITY     CLOUDY    53  45  74 E12       30.04F

...NORTHERN KANSAS...

CITY           SKY/WX    TMP DP  RH WIND       PRES   REMARKS
GOODLAND       LGT RAIN  45  45 100 SE15      29.91R
HILL CITY      LGT RAIN  49  47  93 SE7       29.98R FOG
NORTON         RAIN      48  43  81 E9        29.98R
PHILLIPSBURG   CLOUDY    55  41  58 E17       29.98R
HAYS           LGT RAIN  51  46  83 E10       29.95S
RUSSELL        LGT RAIN  53  43  68 E10       29.94R
CONCORDIA      CLOUDY    54  43  66 E16G23    29.99F
SALINA         CLOUDY    56  44  64 E15       29.95F
TOPEKA         CLOUDY    56  50  80 E8        30.01F



USA.gov is the U.S. government's official web portal to all federal, state and local government web resources and services.